When you browse on this site, cookies collect data to enhance your experience and personalize the content and advertising you see.
Visit our Privacy Policy to learn more. By continuing to use the site, you agree to this use of cookies and data.
  • en Suisse
  • Liste des pays
  • À 7 jours
  • Température de l'eau
  • Carte météo
  • Widgets météo
  • user-avatar
    Se connecter

    Météo par heure à Eisenach

    Ce jour, 25 Mai, Lundi

    Heure Température Précipitation Vent Pression Humidité
    00:00 +10°C° 0.2 mm 3 m/s 750 mmHg 96%
    01:00 +10°C° 0.2 mm 3 m/s 750 mmHg 96%
    02:00 +10°C° 0 mm 3 m/s 750 mmHg 96%
    03:00 +10°C° 0 mm 3 m/s 750 mmHg 96%
    04:00 +10°C° 0 mm 3 m/s 750 mmHg 96%
    05:00 +10°C° 0 mm 3 m/s 751 mmHg 95%
    06:00 +10°C° 0 mm 3 m/s 751 mmHg 95%
    07:00 +10°C° 0 mm 4 m/s 751 mmHg 95%
    08:00 +11°C° 0.2 mm 4 m/s 751 mmHg 91%
    09:00 +12°C° 0.2 mm 5 m/s 751 mmHg 88%
    10:00 +13°C° 0.2 mm 5 m/s 751 mmHg 85%
    11:00 +13°C° 0.1 mm 5 m/s 751 mmHg 81%
    12:00 +14°C° 0.1 mm 5 m/s 751 mmHg 76%
    13:00 +14°C° 0.1 mm 5 m/s 751 mmHg 72%
    14:00 +14°C° 0.1 mm 5 m/s 751 mmHg 71%
    15:00 +14°C° 0.1 mm 5 m/s 751 mmHg 70%
    16:00 +15°C° 0.1 mm 5 m/s 751 mmHg 68%
    17:00 +14°C° 0 mm 4 m/s 751 mmHg 72%
    18:00 +13°C° 0 mm 4 m/s 751 mmHg 75%
    19:00 +13°C° 0 mm 4 m/s 752 mmHg 79%
    20:00 +11°C° 0 mm 3 m/s 752 mmHg 84%
    21:00 +9°C° 0 mm 2 m/s 752 mmHg 89%
    22:00 +9°C° 0 mm 1 m/s 753 mmHg 94%
    23:00 +8°C° 0 mm 1 m/s 753 mmHg 95%

    Demain, 26 Mai, Mardi

    Heure Température Précipitation Vent Pression Humidité
    00:00 +8°C° 0 mm 1 m/s 753 mmHg 95%
    01:00 +8°C° 0 mm 1 m/s 753 mmHg 95%
    02:00 +7°C° 0 mm 1 m/s 753 mmHg 96%
    03:00 +7°C° 0 mm 1 m/s 754 mmHg 96%
    04:00 +7°C° 0 mm 1 m/s 754 mmHg 97%
    05:00 +8°C° 0 mm 1 m/s 754 mmHg 94%
    06:00 +10°C° 0 mm 1 m/s 754 mmHg 91%
    07:00 +11°C° 0 mm 1 m/s 754 mmHg 88%
    08:00 +12°C° 0 mm 1 m/s 755 mmHg 83%
    09:00 +14°C° 0 mm 1 m/s 755 mmHg 78%
    10:00 +15°C° 0 mm 1 m/s 755 mmHg 73%
    11:00 +16°C° 0 mm 2 m/s 755 mmHg 69%
    12:00 +17°C° 0 mm 2 m/s 754 mmHg 64%
    13:00 +18°C° 0 mm 2 m/s 754 mmHg 60%
    14:00 +18°C° 0 mm 2 m/s 754 mmHg 59%
    15:00 +19°C° 0 mm 2 m/s 754 mmHg 58%
    16:00 +19°C° 0 mm 2 m/s 753 mmHg 58%
    17:00 +18°C° 0 mm 2 m/s 753 mmHg 64%
    18:00 +19°C° 0 mm 1 m/s 753 mmHg 71%
    19:00 +18°C° 0 mm 1 m/s 753 mmHg 77%
    20:00 +15°C° 0 mm 1 m/s 753 mmHg 81%
    21:00 +12°C° 0 mm 0 m/s 754 mmHg 86%
    22:00 +10°C° 0 mm 0 m/s 754 mmHg 90%
    23:00 +10°C° 0 mm 0 m/s 754 mmHg 90%

    Après-demain, 27 Mai, Mercredi

    Heure Température Précipitation Vent Pression Humidité
    00:00 +10°C° 0 mm 0 m/s 754 mmHg 91%
    01:00 +10°C° 0 mm 0 m/s 754 mmHg 91%
    02:00 +9°C° 0 mm 0 m/s 753 mmHg 92%
    03:00 +9°C° 0 mm 0 m/s 753 mmHg 92%
    04:00 +9°C° 0 mm 0 m/s 753 mmHg 93%
    05:00 +10°C° 0 mm 0 m/s 753 mmHg 89%
    06:00 +13°C° 0 mm 1 m/s 753 mmHg 86%
    07:00 +15°C° 0 mm 1 m/s 753 mmHg 82%
    08:00 +16°C° 0 mm 1 m/s 753 mmHg 75%
    09:00 +19°C° 0 mm 1 m/s 753 mmHg 68%
    10:00 +19°C° 0 mm 2 m/s 753 mmHg 61%
    11:00 +20°C° 0 mm 2 m/s 753 mmHg 58%
    12:00 +20°C° 0 mm 2 m/s 753 mmHg 56%
    13:00 +21°C° 0 mm 3 m/s 752 mmHg 53%
    14:00 +20°C° 0 mm 3 m/s 752 mmHg 53%
    15:00 +20°C° 0 mm 3 m/s 752 mmHg 53%
    16:00 +20°C° 0 mm 4 m/s 751 mmHg 54%
    17:00 +19°C° 0 mm 3 m/s 751 mmHg 61%
    18:00 +18°C° 0 mm 3 m/s 751 mmHg 68%
    19:00 +17°C° 0 mm 2 m/s 751 mmHg 75%
    20:00 +15°C° 0 mm 2 m/s 751 mmHg 81%
    21:00 +13°C° 0 mm 2 m/s 752 mmHg 88%
    22:00 +12°C° 0 mm 2 m/s 752 mmHg 94%
    23:00 +10°C° 0 mm 2 m/s 752 mmHg 94%

    28 Mai, Jeudi

    Heure Température Précipitation Vent Pression Humidité
    00:00 +11°C° 0 mm 1 m/s 752 mmHg 94%
    01:00 +11°C° 0 mm 1 m/s 752 mmHg 93%
    02:00 +9°C° 0 mm 2 m/s 752 mmHg 94%
    03:00 +8°C° 0 mm 2 m/s 752 mmHg 94%
    04:00 +7°C° 0 mm 2 m/s 752 mmHg 94%
    05:00 +8°C° 0 mm 2 m/s 752 mmHg 90%
    06:00 +9°C° 0 mm 2 m/s 752 mmHg 87%
    07:00 +9°C° 0 mm 2 m/s 752 mmHg 83%
    08:00 +12°C° 0 mm 2 m/s 751 mmHg 74%
    09:00 +13°C° 0 mm 2 m/s 751 mmHg 64%
    10:00 +15°C° 0 mm 2 m/s 751 mmHg 55%
    11:00 +14°C° 0 mm 3 m/s 751 mmHg 53%
    12:00 +16°C° 0 mm 3 m/s 750 mmHg 52%
    13:00 +16°C° 0 mm 3 m/s 750 mmHg 51%
    14:00 +16°C° 0 mm 3 m/s 750 mmHg 52%
    15:00 +16°C° 0 mm 3 m/s 749 mmHg 53%
    16:00 +17°C° 0 mm 4 m/s 749 mmHg 54%
    17:00 +16°C° 0 mm 3 m/s 749 mmHg 60%
    18:00 +14°C° 0 mm 3 m/s 749 mmHg 66%
    19:00 +14°C° 0 mm 2 m/s 749 mmHg 72%
    20:00 +12°C° 0 mm 2 m/s 749 mmHg 78%
    21:00 +10°C° 0 mm 2 m/s 749 mmHg 85%
    22:00 +9°C° 0 mm 1 m/s 749 mmHg 91%
    23:00 +8°C° 0 mm 1 m/s 749 mmHg 91%

    29 Mai, Vendredi

    Heure Température Précipitation Vent Pression Humidité
    00:00 +8°C° 0 mm 1 m/s 749 mmHg 92%
    01:00 +8°C° 0 mm 1 m/s 749 mmHg 93%
    02:00 +7°C° 0 mm 1 m/s 748 mmHg 93%
    03:00 +7°C° 0 mm 1 m/s 748 mmHg 94%
    04:00 +6°C° 0 mm 1 m/s 748 mmHg 95%
    05:00 +8°C° 0 mm 1 m/s 748 mmHg 90%
    06:00 +9°C° 0 mm 1 m/s 748 mmHg 86%
    07:00 +11°C° 0 mm 1 m/s 748 mmHg 81%
    08:00 +13°C° 0 mm 1 m/s 748 mmHg 74%
    09:00 +14°C° 0 mm 1 m/s 747 mmHg 66%
    10:00 +16°C° 0 mm 2 m/s 747 mmHg 59%
    11:00 +16°C° 0.1 mm 2 m/s 747 mmHg 58%
    12:00 +16°C° 0.1 mm 2 m/s 746 mmHg 57%
    13:00 +17°C° 0.1 mm 2 m/s 746 mmHg 55%
    14:00 +17°C° 0.1 mm 3 m/s 745 mmHg 55%
    15:00 +17°C° 0.1 mm 3 m/s 745 mmHg 54%
    16:00 +17°C° 0.1 mm 3 m/s 745 mmHg 54%
    17:00 +17°C° 0.1 mm 3 m/s 745 mmHg 60%
    18:00 +16°C° 0.1 mm 3 m/s 745 mmHg 67%
    19:00 +14°C° 0.1 mm 3 m/s 745 mmHg 73%
    20:00 +13°C° 0 mm 2 m/s 745 mmHg 79%
    21:00 +10°C° 0 mm 2 m/s 745 mmHg 84%
    22:00 +9°C° 0 mm 1 m/s 745 mmHg 90%
    23:00 +9°C° 0 mm 1 m/s 746 mmHg 91%

    30 Mai, Samedi

    Heure Température Précipitation Vent Pression Humidité
    00:00 +8°C° 0 mm 1 m/s 746 mmHg 92%
    01:00 +7°C° 0 mm 1 m/s 746 mmHg 93%
    02:00 +7°C° 0 mm 1 m/s 746 mmHg 92%
    03:00 +6°C° 0 mm 1 m/s 746 mmHg 91%
    04:00 +6°C° 0 mm 1 m/s 746 mmHg 91%
    05:00 +7°C° 0 mm 1 m/s 746 mmHg 83%
    06:00 +9°C° 0 mm 1 m/s 746 mmHg 76%
    07:00 +11°C° 0 mm 1 m/s 746 mmHg 69%
    08:00 +13°C° 0 mm 1 m/s 746 mmHg 62%
    09:00 +14°C° 0 mm 2 m/s 746 mmHg 56%
    10:00 +16°C° 0 mm 2 m/s 746 mmHg 50%
    11:00 +17°C° 0 mm 2 m/s 746 mmHg 48%
    12:00 +17°C° 0 mm 2 m/s 746 mmHg 47%
    13:00 +18°C° 0 mm 2 m/s 746 mmHg 45%
    14:00 +18°C° 0 mm 2 m/s 745 mmHg 46%
    15:00 +18°C° 0 mm 2 m/s 745 mmHg 47%
    16:00 +18°C° 0 mm 2 m/s 745 mmHg 48%
    17:00 +17°C° 0 mm 2 m/s 745 mmHg 55%
    18:00 +17°C° 0 mm 2 m/s 745 mmHg 61%
    19:00 +16°C° 0 mm 1 m/s 744 mmHg 68%
    20:00 +14°C° 0 mm 1 m/s 744 mmHg 73%
    21:00 +12°C° 0 mm 1 m/s 745 mmHg 78%
    22:00 +8°C° 0 mm 0 m/s 745 mmHg 82%
    23:00 +8°C° 0 mm 0 m/s 745 mmHg 83%
    Voir plus